This is the latest recevied weather packets stored in our database for station/object NR6G-5. If no packets are shown the sender has not sent any weather packets the latest 1 day(s).
| Time | Temp. | Humidity | Pressure | Rain* | Wind** | Luminosity | Snow |
|---|---|---|---|---|---|---|---|
| 1836274623 | 25° C | 77% | 1011.6 hPa | 0 mm | 0 m/s | - | - |
| 1836274476 | 24.44° C | 76% | 1011.6 hPa | 0 mm | 0 m/s | - | - |
| 1836274322 | 25° C | 78% | 1011.5 hPa | 0 mm | 0 m/s | - | - |
| 1836274172 | 25° C | 76% | 1011.6 hPa | 0 mm | 0 m/s | - | - |
| 1836274022 | 25° C | 78% | 1011.4 hPa | 0 mm | 0 m/s | - | - |
| 1778093273 | 20° C | 56% | 1018.7 hPa | 0 mm | 1.34 m/s, 230° | - | - |
| 1778092973 | 20° C | 58% | 1018.8 hPa | 0 mm | 1.34 m/s, 251° | - | - |
| 1778092675 | 20° C | 60% | 1018.7 hPa | 0 mm | 3.13 m/s, 241° | - | - |
| 1778092373 | 20° C | 62% | 1018.8 hPa | 0 mm | 0.89 m/s, 251° | - | - |
| 1778091773 | 19.44° C | 62% | 1019 hPa | 0 mm | 2.68 m/s, 211° | - | - |
| 1778090670 | 18.89° C | 65% | 1019.2 hPa | 0 mm | 2.24 m/s, 246° | - | - |
| 1778090371 | 18.89° C | 64% | 1019.2 hPa | 0 mm | 0.89 m/s, 288° | - | - |
| 1778090070 | 18.89° C | 66% | 1019.2 hPa | 0 mm | 1.34 m/s, 260° | - | - |
| 1778089770 | 18.89° C | 66% | 1019.3 hPa | 0 mm | 2.24 m/s, 223° | - | - |
| 1778089471 | 18.89° C | 68% | 1019.3 hPa | 0 mm | 0.89 m/s, 207° | - | - |
| 1778089171 | 18.33° C | 68% | 1019.4 hPa | 0 mm | 1.34 m/s, 183° | - | - |
| 1778088870 | 18.33° C | 68% | 1019.4 hPa | 0 mm | 2.68 m/s, 207° | - | - |
| 1778088570 | 18.33° C | 68% | 1019.4 hPa | 0 mm | 1.34 m/s, 211° | - | - |
| 1778088270 | 18.33° C | 68% | 1019.4 hPa | 0 mm | 1.34 m/s, 234° | - | - |
| 1778087970 | 17.78° C | 70% | 1019.5 hPa | 0 mm | 2.24 m/s, 167° | - | - |
| 1778087670 | 17.78° C | 70% | 1019.5 hPa | 0 mm | 0.45 m/s, 194° | - | - |
| 1778087372 | 17.22° C | 70% | 1019.6 hPa | 0 mm | 0.89 m/s, 200° | - | - |
| 1778087070 | 17.22° C | 70% | 1019.6 hPa | 0 mm | 2.24 m/s, 196° | - | - |
| 1778086770 | 17.22° C | 71% | 1019.6 hPa | 0 mm | 1.79 m/s, 197° | - | - |
| 1778086471 | 17.22° C | 72% | 1019.6 hPa | 0 mm | 1.79 m/s, 196° | - | - |
* Rain latest hour (hover to see other rain measurements)
** Current wind speed in m/s (hover to see current wind gust speed)